When you browse on this site, cookies collect data to enhance your experience and personalize the content and advertising you see.
Visit our Privacy Policy to learn more. By continuing to use the site, you agree to this use of cookies and data.

Hourly Weather Korçe

Today, 23 September, Wednesday

Time Temperature Precipitation Wind Pressure Humidity
00:00 +14°C° 0 mm 2 mps 668 mmHg 91%
01:00 +14°C° 0 mm 2 mps 668 mmHg 93%
02:00 +14°C° 0 mm 2 mps 668 mmHg 93%
03:00 +14°C° 0 mm 2 mps 668 mmHg 93%
04:00 +14°C° 0 mm 2 mps 667 mmHg 93%
05:00 +14°C° 0.6 mm 2 mps 668 mmHg 91%
06:00 +15°C° 0.6 mm 2 mps 668 mmHg 89%
07:00 +16°C° 0 mm 2 mps 668 mmHg 86%
08:00 +17°C° 1.1 mm 2 mps 668 mmHg 81%
09:00 +18°C° 1.1 mm 3 mps 669 mmHg 75%
10:00 +19°C° 1.1 mm 3 mps 669 mmHg 69%
11:00 +20°C° 1.1 mm 3 mps 669 mmHg 64%
12:00 +21°C° 1.1 mm 3 mps 669 mmHg 59%
13:00 +22°C° 1.1 mm 3 mps 669 mmHg 53%
14:00 +22°C° 0.6 mm 3 mps 668 mmHg 56%
15:00 +21°C° 0.6 mm 3 mps 668 mmHg 59%
16:00 +20°C° 0.6 mm 3 mps 667 mmHg 62%
17:00 +19°C° 0.6 mm 2 mps 667 mmHg 69%
18:00 +17°C° 0.6 mm 2 mps 667 mmHg 77%
19:00 +15°C° 0.6 mm 2 mps 666 mmHg 84%
20:00 +15°C° 0.4 mm 2 mps 666 mmHg 86%
21:00 +15°C° 0.4 mm 2 mps 666 mmHg 87%
22:00 +15°C° 0.4 mm 2 mps 666 mmHg 88%
23:00 +14°C° 0.4 mm 2 mps 666 mmHg 89%

Tomorrow, 24 September, Thursday

Time Temperature Precipitation Wind Pressure Humidity
00:00 +14°C° 0.4 mm 2 mps 666 mmHg 90%
01:00 +14°C° 0.4 mm 2 mps 666 mmHg 91%
02:00 +14°C° 0.3 mm 2 mps 665 mmHg 92%
03:00 +14°C° 0.3 mm 1 mps 665 mmHg 92%
04:00 +13°C° 0.3 mm 1 mps 665 mmHg 93%
05:00 +14°C° 0.1 mm 1 mps 665 mmHg 90%
06:00 +15°C° 0.1 mm 1 mps 665 mmHg 86%
07:00 +16°C° 0.1 mm 1 mps 666 mmHg 83%
08:00 +19°C° 0.2 mm 1 mps 666 mmHg 74%
09:00 +20°C° 0.2 mm 1 mps 667 mmHg 66%
10:00 +22°C° 0.2 mm 1 mps 668 mmHg 57%
11:00 +23°C° 0.1 mm 2 mps 668 mmHg 52%
12:00 +23°C° 0.1 mm 2 mps 668 mmHg 48%
13:00 +24°C° 0.1 mm 3 mps 668 mmHg 43%
14:00 +22°C° 0.1 mm 3 mps 667 mmHg 47%
15:00 +21°C° 0.1 mm 3 mps 667 mmHg 51%
16:00 +21°C° 0.1 mm 3 mps 667 mmHg 55%
17:00 +19°C° 0 mm 2 mps 666 mmHg 62%
18:00 +17°C° 0 mm 2 mps 666 mmHg 68%
19:00 +15°C° 0 mm 1 mps 666 mmHg 75%
20:00 +15°C° 0 mm 1 mps 666 mmHg 75%
21:00 +14°C° 0 mm 1 mps 666 mmHg 75%
22:00 +13°C° 0 mm 0 mps 666 mmHg 75%
23:00 +13°C° 0 mm 0 mps 666 mmHg 76%

Day after tomorrow, 25 September, Friday

Time Temperature Precipitation Wind Pressure Humidity
00:00 +14°C° 0 mm 1 mps 665 mmHg 76%
01:00 +13°C° 0 mm 1 mps 665 mmHg 77%
02:00 +13°C° 0 mm 1 mps 665 mmHg 77%
03:00 +13°C° 0 mm 1 mps 664 mmHg 77%
04:00 +13°C° 0 mm 1 mps 664 mmHg 77%
05:00 +14°C° 0 mm 1 mps 664 mmHg 73%
06:00 +15°C° 0 mm 1 mps 665 mmHg 70%
07:00 +16°C° 0 mm 1 mps 665 mmHg 66%
08:00 +18°C° 0 mm 2 mps 665 mmHg 60%
09:00 +20°C° 0 mm 2 mps 666 mmHg 53%
10:00 +21°C° 0 mm 3 mps 666 mmHg 47%
11:00 +22°C° 0 mm 3 mps 666 mmHg 45%
12:00 +24°C° 0 mm 3 mps 665 mmHg 43%
13:00 +23°C° 0 mm 4 mps 665 mmHg 41%
14:00 +23°C° 0 mm 4 mps 664 mmHg 43%
15:00 +22°C° 0 mm 4 mps 664 mmHg 46%
16:00 +21°C° 0 mm 4 mps 663 mmHg 48%
17:00 +20°C° 0.2 mm 3 mps 662 mmHg 57%
18:00 +18°C° 0.2 mm 2 mps 662 mmHg 65%
19:00 +18°C° 0.2 mm 1 mps 662 mmHg 74%
20:00 +16°C° 0.2 mm 2 mps 661 mmHg 78%
21:00 +15°C° 0.2 mm 2 mps 660 mmHg 82%
22:00 +14°C° 0.2 mm 2 mps 660 mmHg 87%
23:00 +14°C° 3.2 mm 2 mps 659 mmHg 89%

26 September, Saturday

Time Temperature Precipitation Wind Pressure Humidity
00:00 +13°C° 3.2 mm 3 mps 658 mmHg 92%
01:00 +13°C° 3.2 mm 3 mps 658 mmHg 94%
02:00 +13°C° 1.3 mm 3 mps 657 mmHg 94%
03:00 +13°C° 1.3 mm 3 mps 657 mmHg 94%
04:00 +13°C° 1.3 mm 3 mps 656 mmHg 94%
05:00 +13°C° 1.9 mm 3 mps 656 mmHg 93%
06:00 +12°C° 1.9 mm 3 mps 656 mmHg 92%
07:00 +11°C° 1.9 mm 3 mps 656 mmHg 91%
08:00 +11°C° 0.9 mm 3 mps 656 mmHg 86%
09:00 +12°C° 0.9 mm 3 mps 656 mmHg 80%
10:00 +12°C° 0.9 mm 3 mps 656 mmHg 74%
11:00 +12°C° 1 mm 3 mps 656 mmHg 74%
12:00 +11°C° 1 mm 3 mps 656 mmHg 75%
13:00 +11°C° 1 mm 4 mps 656 mmHg 76%
14:00 +10°C° 1.1 mm 3 mps 655 mmHg 79%
15:00 +10°C° 1.1 mm 3 mps 655 mmHg 81%
16:00 +9°C° 1.1 mm 3 mps 655 mmHg 84%
17:00 +9°C° 1 mm 3 mps 655 mmHg 86%
18:00 +8°C° 1 mm 2 mps 656 mmHg 88%
19:00 +8°C° 1 mm 2 mps 656 mmHg 90%
20:00 +8°C° 1 mm 2 mps 656 mmHg 91%
21:00 +8°C° 1 mm 2 mps 656 mmHg 93%
22:00 +7°C° 1 mm 2 mps 657 mmHg 94%
23:00 +7°C° 0.6 mm 2 mps 657 mmHg 94%

27 September, Sunday

Time Temperature Precipitation Wind Pressure Humidity
00:00 +7°C° 0.6 mm 2 mps 657 mmHg 94%
01:00 +7°C° 0.6 mm 2 mps 657 mmHg 94%
02:00 +7°C° 0.2 mm 2 mps 657 mmHg 94%
03:00 +7°C° 0.2 mm 2 mps 658 mmHg 94%
04:00 +6°C° 0.2 mm 2 mps 658 mmHg 94%
05:00 +7°C° 0.2 mm 2 mps 658 mmHg 92%
06:00 +7°C° 0.2 mm 2 mps 659 mmHg 91%
07:00 +7°C° 0.2 mm 2 mps 659 mmHg 89%
08:00 +8°C° 0.4 mm 3 mps 660 mmHg 84%
09:00 +9°C° 0.4 mm 3 mps 661 mmHg 79%
10:00 +10°C° 0.4 mm 3 mps 662 mmHg 73%
11:00 +11°C° 0.3 mm 3 mps 662 mmHg 70%
12:00 +11°C° 0.3 mm 3 mps 662 mmHg 67%
13:00 +12°C° 0.3 mm 3 mps 663 mmHg 64%
14:00 +11°C° 0.1 mm 3 mps 663 mmHg 64%
15:00 +11°C° 0.1 mm 3 mps 663 mmHg 63%
16:00 +12°C° 0.1 mm 2 mps 663 mmHg 63%
17:00 +10°C° 0 mm 2 mps 663 mmHg 68%
18:00 +8°C° 0 mm 3 mps 663 mmHg 72%
19:00 +7°C° 0 mm 3 mps 663 mmHg 77%
20:00 +7°C° 0 mm 3 mps 663 mmHg 77%
21:00 +7°C° 0 mm 4 mps 663 mmHg 77%
22:00 +7°C° 0 mm 4 mps 663 mmHg 77%
23:00 +7°C° 0.6 mm 4 mps 663 mmHg 81%

28 September, Monday

Time Temperature Precipitation Wind Pressure Humidity
00:00 +7°C° 0.6 mm 4 mps 662 mmHg 85%
01:00 +7°C° 0.6 mm 4 mps 662 mmHg 88%
02:00 +7°C° 2.6 mm 4 mps 662 mmHg 91%
03:00 +7°C° 2.6 mm 4 mps 662 mmHg 93%
04:00 +7°C° 2.6 mm 4 mps 661 mmHg 95%
05:00 +7°C° 3.4 mm 4 mps 662 mmHg 95%
06:00 +8°C° 3.4 mm 4 mps 662 mmHg 96%
07:00 +8°C° 3.4 mm 4 mps 662 mmHg 96%
08:00 +10°C° 3.5 mm 4 mps 663 mmHg 96%
09:00 +10°C° 3.5 mm 4 mps 663 mmHg 96%
10:00 +10°C° 3.5 mm 4 mps 663 mmHg 96%
11:00 +11°C° 2 mm 3 mps 663 mmHg 96%
12:00 +11°C° 2 mm 3 mps 663 mmHg 96%
13:00 +11°C° 2 mm 3 mps 663 mmHg 96%
14:00 +12°C° 1.9 mm 2 mps 664 mmHg 96%
15:00 +12°C° 1.9 mm 2 mps 664 mmHg 96%
16:00 +12°C° 1.9 mm 2 mps 664 mmHg 96%
17:00 +12°C° 0.6 mm 2 mps 664 mmHg 96%
18:00 +12°C° 0.6 mm 1 mps 664 mmHg 95%
19:00 +11°C° 0.6 mm 1 mps 665 mmHg 95%
20:00 +11°C° 0.1 mm 1 mps 665 mmHg 95%
21:00 +11°C° 0.1 mm 1 mps 665 mmHg 94%
22:00 +11°C° 0.1 mm 1 mps 665 mmHg 94%
23:00 +11°C° 0.1 mm 1 mps 665 mmHg 94%
Show more